SCP
1 1 1 0 0 0 0 0 0 0 0 0 0 0 0 0 0 0 0 0 0 0 0 0 0 0 0 0 0 1 1 1 1 1 1 1 0 0 0 0 0 0 1 1 1 1 1 1 1
1 1 1 0 0 0 0 0 0 0 0 0 0 0 0 0 0 0 0 0 0 0 0 0 0 1 1 0 0 1 1 0 0 0 0 0 0 0 0 0 0 0 0 1 1 1 1 1 1
1 1 1 0 0 0 0 0 0 0 0 0 0 0 0 0 0 0 0 0 0 0 0 0 1 1 1 1 1 1 0 0 0 0 0 0 0 0 0 0 0 0 0 0 1 1 1 1 1
1 1 0 0 0 0 0 0 0 0 0 0 0 0 0 0 0 0 0 0 0 0 0 0 0 1 0 1 1 1 0 0 0 0 0 0 0 0 0 0 0 0 0 0 0 1 1 1 1
1 1 0 0 0 0 0 0 0 0 0 0 0 0 0 0 1 1 1 0 0 0 0 0 0 0 0 0 0 0 0 0 0 0 0 0 0 0 0 0 0 0 0 0 0 0 0 1 1
0 0 0 0 0 0 0 0 0 0 0 0 0 0 0 0 1 1 1 0 0 0 0 0 0 0 0 0 0 0 0 0 0 0 0 0 0 0 0 0 0 0 0 0 0 0 0 0 1
0 0 0 0 0 0 0 0 0 0 0 0 0 0 0 1 1 1 1 0 0 0 0 0 0 0 0 0 0 0 0 0 0 0 0 0 0 0 0 0 0 0 0 0 0 0 0 0 0
0 0 0 0 0 0 0 0 0 1 1 1 1 0 0 1 1 1 1 0 0 0 0 0 0 0 0 0 0 0 0 0 0 0 0 0 0 0 0 0 0 0 0 0 0 0 0 0 0
0 0 0 0 0 0 0 1 1 1 1 1 1 1 1 1 1 1 1 0 0 0 0 0 0 0 0 0 0 0 0 0 0 0 0 0 0 0 0 0 0 1 0 0 0 0 0 0 0
0 0 0 0 0 0 0 1 1 1 1 1 1 1 1 1 1 1 1 0 0 0 0 0 0 0 0 0 0 0 0 0 0 0 0 0 0 0 0 0 0 1 1 0 0 0 0 0 1
1 1 1 1 1 1 1 1 0 1 1 1 1 1 1 1 1 1 1 0 0 0 0 0 0 0 0 0 0 0 0 0 0 0 0 0 0 0 0 0 0 0 0 0 0 0 0 0 0
1 1 1 1 1 1 0 0 0 0 0 0 1 1 1 1 1 1 0 0 0 0 0 0 0 0 0 0 0 0 0 0 0 0 0 0 0 0 0 0 0 0 0 0 0 0 0 0 0
1 1 1 1 1 0 0 0 0 1 1 1 1 1 1 1 1 1 0 0 0 0 0 0 0 0 0 0 0 0 0 0 0 0 0 0 0 0 0 0 0 0 0 0 0 0 0 0 0
1 1 1 1 0 0 0 0 0 1 1 1 1 1 1 1 1 1 0 0 0 0 0 0 0 0 0 0 0 0 0 0 0 0 0 0 0 0 0 0 0 0 0 0 0 0 0 0 0
1 1 0 0 0 0 0 0 0 0 1 1 1 1 1 0 0 1 1 1 0 0 0 0 0 0 0 0 0 0 0 0 0 0 0 0 0 0 0 0 0 0 0 0 0 0 0 0 0
1 0 0 0 0 0 0 0 0 0 1 1 0 0 0 0 0 1 1 1 0 0 0 0 0 0 0 0 0 0 0 0 0 0 0 0 0 0 0 0 0 0 0 0 0 0 0 0 0
0 0 0 0 0 0 0 0 0 0 0 0 0 0 0 0 0 0 1 1 1 0 0 0 0 0 0 0 0 0 0 0 0 0 0 0 0 0 0 0 0 0 0 0 0 0 0 0 0
0 0 0 0 0 0 0 0 0 0 0 0 0 0 0 0 0 0 1 1 1 0 0 0 0 0 0 0 0 0 0 0 0 0 0 0 0 0 0 0 0 0 0 0 0 0 0 0 0
0 0 0 0 0 0 0 0 0 0 0 0 0 0 0 0 0 0 0 1 1 0 0 0 0 0 0 0 0 0 0 0 0 0 0 0 0 0 0 0 0 0 0 0 0 0 0 0 0
0 0 0 0 0 0 0 0 0 0 0 0 0 0 0 0 0 0 0 0 1 0 0 0 0 0 0 0 0 0 0 0 0 0 0 0 0 0 0 0 0 0 0 0 0 0 0 0 0
0 0 0 0 0 0 0 0 0 0 0 0 0 0 0 0 0 0 1 1 1 1 0 0 0 0 0 0 0 0 0 0 0 0 0 0 0 0 0 0 0 0 0 0 0 0 0 0 0
0 0 0 0 0 0 0 0 0 0 0 0 0 0 0 0 0 0 1 1 1 1 0 0 0 0 0 0 0 0 0 0 0 0 0 0 0 0 0 0 0 0 0 0 0 0 0 0 0
0 0 0 0 0 0 0 0 0 0 0 0 0 0 0 0 0 1 1 1 1 1 1 0 0 0 0 0 0 0 0 0 0 0 0 0 0 0 0 0 0 0 0 0 0 0 0 0 0
0 0 0 0 0 0 0 0 0 0 0 0 0 0 0 0 0 1 1 1 1 1 1 0 0 0 0 0 0 0 0 0 0 0 0 0 0 0 0 0 0 0 0 0 0 0 0 0 0
0 0 0 0 0 0 0 0 0 0 0 0 0 0 0 0 0 1 1 1 1 1 0 0 0 0 0 0 0 0 0 0 0 0 0 0 0 0 0 0 0 0 0 0 0 0 0 0 0
0 0 0 0 0 0 0 0 0 0 0 0 0 0 0 0 0 1 1 1 1 0 0 0 0 0 0 0 0 0 0 0 0 0 0 0 0 0 0 0 0 0 0 0 0 0 0 0 0
0 0 0 0 0 0 0 0 0 0 0 0 0 0 0 0 0 1 1 1 0 0 0 0 0 0 0 0 0 0 0 0 0 0 0 0 0 0 0 0 0 0 0 0 0 0 0 0 0
0 0 0 0 0 0 0 0 0 0 0 0 0 0 0 0 0 0 1 1 0 0 0 0 0 0 0 0 0 0 0 0 0 0 0 0 0 0 0 0 0 0 0 0 0 0 0 0 0
0 0 0 0 0 0 0 0 0 0 0 0 0 0 0 0 0 0 0 0 0 0 0 0 0 0 0 0 0 0 0 0 0 0 0 0 0 0 0 0 0 0 0 0 0 0 0 0 0
0 0 0 0 0 0 0 0 0 0 0 0 0 0 0 0 0 0 0 0 0 0 0 1 0 0 0 0 0 0 0 0 0 0 0 0 0 0 0 0 0 0 0 0 0 0 0 0 0
Wind_Speed
4 1 2 2 4 4 2 1 1 2 3 4 7 9 8 6 5 7 2 8 9 7 6 8 10 11 11 11 10 11 10 10 9 9 9 9 9 9 8 8 7 7 7 6 6 6 5 5 5
1 0 2 3 4 3 1 1 2 3 6 7 8 8 8 7 6 7 4 9 10 8 6 7 11 11 11 10 10 10 9 9 8 8 8 8 8 7 7 7 6 6 6 6 5 5 5 4 4
1 1 2 3 3 3 2 2 2 3 4 4 5 6 6 4 5 5 7 11 10 7 6 7 11 11 11 10 10 9 9 8 8 7 7 7 7 6 6 6 6 5 5 5 5 5 4 4 4
1 2 3 4 3 1 3 2 3 4 4 5 7 6 4 3 4 8 12 11 10 7 5 7 11 11 10 10 9 8 8 7 7 6 6 5 5 5 5 4 4 4 4 4 4 4 4 4 4
2 3 4 3 1 0 1 2 3 5 4 6 9 7 4 3 10 13 12 10 10 7 5 7 11 11 10 9 9 8 7 6 5 5 4 4 3 3 3 3 3 3 3 3 3 3 3 4 4
3 4 4 2 1 1 1 2 5 8 8 8 9 7 3 4 10 10 11 9 9 8 6 6 11 11 10 9 8 7 6 5 4 3 2 1 2 2 2 2 2 2 2 3 3 3 4 4 5
3 3 2 2 2 1 1 2 5 6 5 5 6 6 4 4 7 9 10 9 8 7 6 4 4 6 8 9 7 6 5 4 2 1 0 1 2 2 2 3 3 3 3 4 4 5 5 5 6
3 4 2 1 3 1 1 1 5 7 5 5 5 8 6 5 7 8 8 7 7 6 5 5 4 3 3 3 6 6 4 3 1 2 3 3 3 4 4 4 4 4 4 5 6 6 7 7 7
4 5 2 2 3 2 2 4 4 6 7 4 4 6 8 10 9 8 6 5 5 6 4 5 4 3 3 3 4 3 3 2 1 3 4 3 2 3 3 4 5 5 5 6 6 7 7 7 7
4 3 4 3 4 3 3 5 4 6 8 6 7 7 9 9 9 8 7 6 6 6 5 5 5 5 4 3 2 1 1 1 1 1 2 2 1 2 2 4 5 5 5 6 7 7 7 5 3
4 4 3 1 2 3 4 4 4 7 5 8 11 11 9 8 8 8 7 6 6 5 5 5 5 5 3 2 1 0 0 0 1 1 1 1 1 2 2 2 3 4 4 4 5 5 3 3 2
3 2 3 1 2 3 4 5 4 5 7 9 13 13 10 9 8 8 7 7 6 5 5 5 5 4 3 2 1 1 1 0 0 1 1 1 1 2 2 1 2 2 2 2 3 2 3 3 3
2 2 2 2 3 3 6 6 5 3 6 9 10 10 10 9 7 6 7 6 6 6 5 5 5 4 3 2 1 1 1 1 1 1 2 2 2 2 2 2 2 2 2 2 2 3 3 4 3
4 3 2 2 2 3 7 5 5 3 8 9 8 7 6 7 7 6 6 6 6 6 6 5 5 5 4 3 2 1 1 1 2 2 2 3 2 2 2 2 3 2 2 2 1 2 2 2 2
4 4 2 1 0 1 6 6 2 3 9 8 7 6 6 6 7 7 7 6 6 6 5 6 5 5 4 3 2 2 2 2 2 1 2 3 3 3 2 2 3 3 3 3 2 3 2 3 3
4 4 2 3 1 2 7 2 2 1 9 7 6 5 6 5 6 6 7 6 5 5 5 5 5 4 4 3 3 2 2 2 1 1 2 3 3 3 3 2 2 3 3 3 2 2 3 3 3
3 2 1 2 1 2 5 2 2 1 8 7 5 5 5 5 4 4 6 6 6 5 5 4 4 4 3 3 2 2 2 2 1 1 1 2 2 3 2 2 2 3 3 3 3 2 2 2 4
3 2 1 1 1 5 6 3 1 1 6 6 5 4 5 5 4 4 5 5 5 5 5 5 4 3 3 3 2 2 2 1 1 0 0 1 1 2 2 2 2 2 2 3 2 2 2 2 3
5 5 3 2 2 5 6 4 2 2 4 5 4 4 5 4 2 4 5 5 5 4 4 4 4 3 2 2 2 1 1 1 1 1 1 0 0 1 1 1 2 2 2 2 3 2 3 3 2
4 5 3 1 3 5 6 4 2 3 3 4 5 5 5 4 3 3 4 4 4 4 3 3 3 3 2 1 1 1 1 1 1 1 1 1 1 1 0 0 1 1 1 3 3 2 2 2 2
3 5 6 5 3 4 5 4 3 2 3 5 4 4 4 5 4 3 3 3 3 3 3 3 3 3 2 2 2 2 3 2 2 2 2 2 2 2 2 1 1 1 1 1 2 1 0 1 2
3 6 8 7 5 1 3 2 3 1 4 4 4 3 4 4 3 3 3 3 3 2 2 3 3 2 2 2 2 2 1 0 2 2 2 3 3 2 2 2 2 2 1 2 2 1 1 0 1
4 4 6 5 5 3 3 4 4 1 1 1 2 3 3 3 4 3 2 2 2 2 3 3 3 3 2 2 2 2 1 1 1 1 2 3 3 3 3 2 2 2 2 2 2 2 1 1 1
4 5 5 5 5 1 2 4 3 4 5 4 3 3 4 4 4 4 3 3 3 3 3 3 4 2 1 1 1 1 0 1 1 2 2 3 3 3 3 3 2 2 2 3 2 2 2 2 2
4 6 4 3 3 3 2 3 6 5 6 7 7 5 4 4 4 4 4 3 3 3 3 2 3 2 1 1 1 1 1 1 1 2 2 2 2 3 4 3 3 3 3 3 2 2 2 2 2
3 7 7 5 4 2 1 3 4 2 5 5 6 5 4 4 4 4 4 3 3 2 2 2 2 1 1 1 2 2 1 0 1 1 1 2 2 3 3 3 3 4 4 3 2 2 3 2 3
5 3 5 6 2 1 1 1 3 2 5 5 6 5 5 4 4 4 3 3 2 1 1 1 1 1 1 2 2 2 2 1 1 2 1 1 2 2 3 3 3 4 4 4 3 2 3 2 3
6 6 5 5 4 2 1 3 6 8 8 7 6 6 5 4 4 4 3 2 1 1 1 1 1 1 1 2 2 2 2 2 2 2 3 3 3 3 3 4 4 4 4 4 3 3 3 3 3
3 3 4 4 4 6 3 7 7 12 11 11 8 7 7 6 5 4 3 2 2 2 2 2 2 2 2 2 2 2 2 2 2 3 3 3 3 4 4 4 4 4 4 4 3 3 3 3 3
5 5 7 5 3 4 4 7 3 10 9 9 8 7 6 6 5 4 3 2 2 2 1 2 2 2 1 1 2 2 2 3 3 4 4 4 4 4 4 4 4 4 4 4 3 4 3 3 3
Wind_Direction
275 323 85 58 53 54 43 305 152 77 44 57 76 79 79 56 79 115 149 128 127 123 115 112 111 109 105 102 100 97 94 89 85 82 81 80 80 78 75 72 69 67 66 62 62 64 64 59 53
293 218 74 56 75 78 8 281 101 117 139 121 90 82 77 71 82 105 122 137 130 126 121 116 112 110 107 103 101 100 96 91 87 82 80 77 75 73 71 68 64 65 62 57 54 50 50 48 39
283 219 88 66 82 133 164 233 130 106 124 113 87 59 68 97 109 124 149 142 129 123 120 123 116 111 108 106 103 100 97 93 88 85 81 76 72 69 66 63 59 59 56 50 45 38 37 31 22
43 46 54 71 84 173 166 186 124 101 65 70 96 72 55 77 120 134 141 136 128 126 128 130 123 119 116 112 109 105 100 96 89 85 80 74 68 64 59 54 49 46 41 39 35 26 22 15 6
67 72 64 74 91 315 156 151 122 103 80 79 91 90 65 44 111 129 138 136 133 135 136 136 130 127 123 119 116 112 108 104 99 92 83 72 58 51 47 38 33 26 18 13 10 358 349 344 340
52 64 82 109 104 359 22 85 87 92 108 105 99 101 88 112 122 135 140 140 141 145 145 142 140 136 133 129 125 123 120 117 113 106 90 54 19 10 1 344 331 336 340 334 329 321 316 316 318
104 93 107 132 118 58 101 115 115 117 114 117 119 101 119 134 139 141 143 143 143 145 144 146 146 144 145 142 140 139 137 140 144 149 207 322 321 315 293 285 283 297 305 309 308 307 307 307 304
129 97 84 96 122 189 252 88 114 114 101 117 113 124 155 177 151 134 134 138 144 147 151 155 154 153 153 155 160 162 162 171 205 272 284 299 310 311 293 278 273 285 298 300 300 300 300 300 299
93 83 140 186 159 193 146 92 67 79 94 81 84 129 154 151 135 123 120 125 145 156 165 165 167 173 182 190 193 181 186 214 269 309 308 318 321 311 300 290 273 286 303 307 305 305 304 306 304
90 121 199 198 188 167 122 113 107 91 92 90 91 107 131 138 136 137 145 153 156 160 170 170 170 180 191 200 169 210 276 309 298 306 312 324 318 306 303 302 295 301 312 316 319 321 318 321 313
122 161 211 227 178 137 105 87 83 113 125 150 147 151 150 146 148 154 163 165 168 167 161 165 168 174 172 171 159 146 283 307 311 327 321 354 11 351 351 333 325 324 325 328 331 336 332 328 315
130 191 175 160 63 95 107 102 96 123 168 167 157 156 155 156 164 168 167 167 164 152 155 156 155 150 155 141 137 155 162 111 18 357 26 45 25 17 3 352 339 337 331 329 329 329 327 329 323
156 179 158 105 68 85 97 106 120 119 142 148 148 149 157 161 165 167 167 167 147 137 136 140 139 138 136 112 105 104 109 100 66 25 35 64 55 29 18 1 4 358 349 343 333 333 337 339 335
178 157 111 91 60 83 95 77 84 146 143 146 144 144 150 152 151 146 153 149 144 141 141 137 130 137 125 109 104 100 97 93 72 49 53 67 67 48 33 16 10 359 345 335 339 340 336 331 336
122 93 48 355 88 147 93 47 49 163 137 137 143 145 137 136 140 147 157 154 154 151 146 140 137 129 118 110 105 100 97 93 77 60 54 60 60 55 50 30 8 345 344 352 359 352 355 355 351
66 68 57 311 103 114 98 108 293 132 128 135 145 143 133 134 140 144 147 143 145 143 141 139 132 122 116 109 99 93 90 94 84 68 56 53 52 58 53 32 358 342 355 3 359 0 357 350 344
48 107 177 317 330 107 106 144 284 119 124 133 141 138 131 128 132 144 148 145 145 140 133 125 123 123 120 109 99 91 82 84 92 77 62 52 50 55 57 33 355 355 5 4 354 5 354 336 333
175 154 173 203 10 95 100 119 1 85 121 135 136 131 130 134 152 149 143 142 140 135 130 123 113 117 115 96 79 57 49 41 44 55 55 68 42 47 51 26 1 5 8 355 354 345 342 323 319
157 147 164 222 168 94 99 96 42 35 100 116 119 128 130 144 139 119 118 125 123 122 123 127 123 122 111 92 90 75 24 330 337 296 272 289 312 32 54 16 358 7 360 330 336 340 346 335 341
154 142 154 127 113 106 104 84 52 60 111 147 145 147 146 129 100 104 111 111 124 129 132 141 145 142 139 123 137 153 166 265 277 307 314 284 264 282 262 309 325 347 348 340 342 353 353 333 3
178 171 165 151 100 85 92 36 17 9 65 92 107 130 132 137 140 138 118 110 109 115 135 149 160 149 144 111 81 54 41 19 6 347 322 299 281 276 271 265 274 301 297 297 303 311 14 325 330
189 188 165 150 114 108 115 119 307 349 60 85 99 102 119 129 124 123 115 111 117 120 111 116 128 131 128 115 104 106 100 305 266 280 294 302 298 289 274 267 267 279 275 283 291 289 225 180 315
184 156 141 129 115 78 58 113 273 297 95 119 128 127 131 132 126 121 118 131 112 100 101 97 96 93 98 114 130 124 128 240 291 315 324 320 317 305 291 276 275 280 270 268 281 298 275 210 219
137 82 67 57 74 81 213 140 238 223 191 172 152 146 142 129 121 111 93 84 66 61 73 79 87 78 70 94 114 125 179 293 333 331 326 320 318 313 304 289 279 273 267 264 262 261 263 250 240
93 94 65 30 29 251 196 144 234 218 181 167 164 162 155 131 123 110 99 86 72 65 63 70 80 61 21 30 11 339 271 255 265 285 296 305 313 309 303 295 281 276 270 269 262 254 263 255 249
161 135 148 166 193 261 53 198 257 195 159 147 144 144 135 128 129 126 128 126 117 109 88 84 84 51 8 8 348 353 11 1 287 280 283 275 273 278 291 292 292 289 286 282 270 256 256 250 252
133 160 163 132 142 122 278 308 335 88 130 136 137 132 137 139 134 130 121 118 122 118 101 108 102 43 1 359 6 13 15 15 327 315 322 299 294 301 302 305 310 305 301 293 280 265 263 258 254
149 151 109 121 148 172 226 225 215 195 180 165 159 154 153 146 136 131 129 132 123 110 83 68 74 61 20 17 20 30 8 354 344 349 338 326 313 314 320 321 319 317 314 311 294 279 275 272 270
150 134 125 128 154 151 195 252 215 190 180 170 170 165 160 156 148 144 143 139 120 83 69 63 53 45 32 28 24 20 3 1 4 360 343 332 326 322 317 316 318 315 314 312 316 297 288 282 283
163 174 150 152 198 167 170 256 258 174 168 161 160 160 159 153 149 143 135 118 100 87 69 63 64 62 36 40 42 24 9 9 6 348 338 343 339 330 322 323 322 315 314 312 311 306 295 283 282